Location: St. Louis
(38.6270°N, 90.1994°W)
Time: 10:56:11
(UTC-06:00)

Tiros 1 despin weight - All Passes

Search period start: 06 December 2021 00:00
Search period end: 16 December 2021 00:00
Orbit: 593 x 641 km, 48.2° (Epoch: 05 December)

Date Brightness Start Highest point End Pass type
(mag) Time Alt. Az. Time Alt. Az. Time Alt. Az.
06 Dec - 11:20:01 10° SW 11:24:20 51° SE 11:28:37 10° ENE daylight
06 Dec - 13:01:47 10° W 13:05:57 39° NNW 13:10:06 10° NE daylight
06 Dec - 14:44:45 10° NW 14:48:18 23° N 14:51:51 10° NE daylight
06 Dec - 16:26:41 10° NW 16:30:44 34° NNE 16:34:46 10° E daylight
06 Dec - 18:08:06 10° WNW 18:12:28 64° SW 18:16:51 10° SE visible
06 Dec - 19:52:53 10° WSW 19:53:18 10° SW 19:53:43 10° SW visible
07 Dec - 09:56:25 10° S 09:59:21 17° SE 10:02:15 10° E daylight
07 Dec - 11:35:56 10° WSW 11:40:25 85° NNW 11:44:52 10° ENE daylight
07 Dec - 13:18:30 10° WNW 13:22:22 28° NNW 13:26:13 10° NE daylight
07 Dec - 15:01:14 10° NW 15:04:51 24° N 15:08:28 10° ENE daylight
07 Dec - 16:42:46 10° NW 16:47:04 51° NNE 16:51:23 10° ESE daylight
07 Dec - 18:24:31 10° WNW 18:28:28 32° SW 18:32:25 10° SSE visible
08 Dec - 10:11:10 10° SSW 10:15:13 34° SE 10:19:15 10° ENE daylight
08 Dec - 11:52:17 10° WSW 11:56:38 50° NNW 12:00:57 10° NE daylight
08 Dec - 13:35:15 10° WNW 13:38:52 24° N 13:42:29 10° NE daylight
08 Dec - 15:17:29 10° NW 15:21:21 29° NNE 15:25:12 10° ENE daylight
08 Dec - 16:58:52 10° WNW 17:03:18 88° NE 17:07:42 10° ESE visible
08 Dec - 18:41:35 10° W 18:44:19 16° SW 18:47:05 10° S visible
09 Dec - 08:49:12 10° SE 08:50:21 11° SE 08:51:31 10° ESE daylight
09 Dec - 10:26:47 10° SW 10:31:14 67° SE 10:35:38 10° ENE daylight
09 Dec - 12:08:55 10° W 12:13:00 34° NNW 12:17:02 10° NE daylight
09 Dec - 13:51:50 10° NW 13:55:25 23° N 13:58:58 10° NE daylight
09 Dec - 15:33:37 10° NW 15:37:46 39° NNE 15:41:55 10° E daylight
09 Dec - 17:15:07 10° WNW 17:19:22 49° SW 17:23:37 10° SE visible
10 Dec - 09:02:38 10° S 09:06:10 23° SE 09:09:40 10° E daylight
10 Dec - 10:42:54 10° WSW 10:47:22 69° NNW 10:51:48 10° NE daylight
10 Dec - 12:25:40 10° WNW 12:29:27 26° N 12:33:12 10° NE daylight
10 Dec - 14:08:14 10° NW 14:11:57 25° N 14:15:38 10° ENE daylight
10 Dec - 15:49:41 10° NW 15:54:04 63° NNE 15:58:26 10° ESE daylight
10 Dec - 17:31:43 10° W 17:35:18 25° SW 17:38:54 10° S visible
11 Dec - 09:17:47 10° SSW 09:22:05 44° SE 09:26:20 10° ENE daylight
11 Dec - 10:59:22 10° W 11:03:38 42° NNW 11:07:53 10° NE daylight
11 Dec - 12:42:21 10° WNW 12:45:58 23° N 12:49:32 10° NE daylight
11 Dec - 14:24:25 10° NW 14:28:25 32° NNE 14:32:23 10° E daylight
11 Dec - 16:05:49 10° WNW 16:10:13 73° SW 16:14:37 10° SE daylight
11 Dec - 17:49:26 10° WSW 17:51:07 12° SW 17:52:48 10° SSW visible
12 Dec - 07:54:33 10° SSE 07:57:08 15° SE 07:59:42 10° E daylight
12 Dec - 09:33:37 10° SW 09:38:09 85° SE 09:42:36 10° ENE daylight
12 Dec - 11:16:04 10° WNW 11:20:02 30° NNW 11:23:58 10° NE daylight
12 Dec - 12:58:53 10° NW 13:02:30 24° N 13:06:06 10° ENE daylight
12 Dec - 14:40:31 10° NW 14:44:47 46° NNE 14:49:02 10° E daylight
12 Dec - 16:22:10 10° WNW 16:26:14 37° SW 16:30:18 10° SSE daylight
13 Dec - 08:09:01 10° SSW 08:12:59 30° SE 08:16:54 10° ENE daylight
13 Dec - 09:49:53 10° WSW 09:54:20 56° NNW 09:58:43 10° NE daylight
13 Dec - 11:32:48 10° WNW 11:36:31 25° N 11:40:12 10° NE daylight
13 Dec - 13:15:11 10° NW 13:19:01 27° NNE 13:22:49 10° ENE daylight
13 Dec - 14:56:35 10° NW 15:01:02 78° NNE 15:05:25 10° ESE daylight
13 Dec - 16:39:02 10° W 16:42:07 19° SW 16:45:13 10° S daylight
14 Dec - 08:24:29 10° SW 08:28:57 58° SE 08:33:22 10° ENE daylight
14 Dec - 10:06:28 10° W 10:10:39 36° NNW 10:14:48 10° NE daylight
14 Dec - 11:49:27 10° NW 11:53:03 23° N 11:56:38 10° NE daylight
14 Dec - 13:31:20 10° NW 13:35:27 36° NNE 13:39:32 10° E daylight
14 Dec - 15:12:48 10° WNW 15:17:07 56° SW 15:21:25 10° SE daylight
15 Dec - 07:00:35 10° S 07:03:54 20° SE 07:07:13 10° E daylight
15 Dec - 08:40:31 10° WSW 08:45:03 77° NNW 08:49:33 10° NE daylight
15 Dec - 10:23:12 10° WNW 10:27:05 28° NNW 10:30:55 10° NE daylight
15 Dec - 12:05:53 10° NW 12:09:35 25° N 12:13:15 10° ENE daylight
15 Dec - 13:47:24 10° NW 13:51:46 56° NNE 13:56:06 10° ESE daylight
15 Dec - 15:29:17 10° WNW 15:33:05 28° SW 15:36:51 10° SSE daylight
